Location: Mentone
(34.5413°N, 85.5351°W)
Time: 18:05:43
(UTC-05:00)

Tiros 1 despin weight - All Passes

Search period start: 22 October 2014 00:00
Search period end: 01 November 2014 00:00
Orbit: 601 x 652 km, 48.2° (Epoch: 22 October)

Date Brightness Start Highest point End Pass type
(mag) Time Alt. Az. Time Alt. Az. Time Alt. Az.
22 Oct - 07:38:13 10° SSW 07:42:15 29° SE 07:46:15 10° ENE daylight
22 Oct - 09:19:22 10° WSW 09:23:51 47° NNW 09:28:18 10° NE daylight
22 Oct - 11:03:24 10° NW 11:06:27 17° NNW 11:09:28 10° NNE daylight
22 Oct - 12:46:56 10° NNW 12:49:37 15° N 12:52:16 10° NE daylight
22 Oct - 14:28:16 10° NW 14:32:24 34° NNE 14:36:28 10° E daylight
22 Oct - 16:09:57 10° WNW 16:14:10 42° SW 16:18:21 10° SSE daylight
23 Oct - 07:56:40 10° SW 08:01:18 65° SE 08:05:52 10° ENE daylight
23 Oct - 09:39:18 10° W 09:43:19 28° NNW 09:47:16 10° NE daylight
23 Oct - 11:23:41 10° NW 11:26:14 15° N 11:28:46 10° NNE daylight
23 Oct - 13:06:05 10° NNW 13:09:22 19° NNE 13:12:37 10° ENE daylight
23 Oct - 14:47:18 10° NW 14:51:46 64° NE 14:56:10 10° ESE daylight
23 Oct - 16:30:00 10° W 16:33:07 19° SW 16:36:13 10° S daylight
24 Oct - 06:35:32 10° S 06:39:03 21° SE 06:42:34 10° E daylight
24 Oct - 08:15:52 10° WSW 08:20:30 62° NW 08:25:05 10° NE daylight
24 Oct - 09:59:34 10° WNW 10:02:55 19° NNW 10:06:15 10° NNE daylight
24 Oct - 11:43:30 10° NNW 11:46:03 15° N 11:48:36 10° NE daylight
24 Oct - 13:25:03 10° NW 13:28:59 28° NNE 13:32:51 10° E daylight
24 Oct - 15:06:31 10° WNW 15:10:56 60° SW 15:15:18 10° SE daylight
25 Oct - 06:53:32 10° SSW 06:58:01 46° SE 07:02:28 10° ENE daylight
25 Oct - 08:35:36 10° W 08:39:52 34° NNW 08:44:05 10° NE daylight
25 Oct - 10:19:54 10° NW 10:22:40 15° N 10:25:24 10° NNE daylight
25 Oct - 12:02:48 10° NNW 12:05:50 17° NNE 12:08:50 10° NE daylight
25 Oct - 13:44:01 10° NW 13:48:25 48° NNE 13:52:43 10° ESE daylight
25 Oct - 15:26:11 10° WNW 15:29:56 27° SW 15:33:39 10° S daylight
26 Oct - 05:33:10 10° SSE 05:35:51 15° SE 05:38:31 10° E visible
26 Oct - 07:12:26 10° SW 07:17:08 84° NW 07:21:47 10° NE daylight
26 Oct - 08:55:43 10° WNW 08:59:23 22° NNW 09:03:02 10° NNE daylight
26 Oct - 10:39:56 10° NNW 10:42:28 14° N 10:44:58 10° NE daylight
26 Oct - 12:21:48 10° NNW 12:25:30 24° NNE 12:29:08 10° ENE daylight
26 Oct - 14:03:08 10° NW 14:07:39 84° SW 14:12:06 10° SE daylight
26 Oct - 15:47:21 10° WSW 15:48:47 11° SW 15:50:12 10° SSW daylight
27 Oct - 05:50:31 10° SSW 05:54:44 33° SE 05:58:56 10° ENE visible
27 Oct - 07:31:56 10° WSW 07:36:24 44° NNW 07:40:51 10° NE daylight
27 Oct - 09:16:02 10° NW 09:19:04 17° NNW 09:22:04 10° NNE daylight
27 Oct - 10:59:25 10° NNW 11:02:15 16° N 11:05:03 10° NE daylight
27 Oct - 12:40:44 10° NW 12:44:59 38° NNE 12:49:10 10° E daylight
27 Oct - 14:22:32 10° WNW 14:26:42 37° SW 14:30:48 10° SSE daylight
28 Oct - 04:31:59 10° SE 04:32:38 10° SE 04:33:17 10° ESE visible
28 Oct - 06:09:04 10° SW 06:13:46 73° SE 06:18:25 10° ENE visible
28 Oct - 07:51:53 10° W 07:55:51 27° NNW 07:59:47 10° NE daylight
28 Oct - 09:36:13 10° NW 09:38:49 15° N 09:41:25 10° NNE daylight
28 Oct - 11:18:30 10° NNW 11:21:57 20° NNE 11:25:20 10° ENE daylight
28 Oct - 12:59:45 10° NW 13:04:17 72° NE 13:08:45 10° ESE daylight
28 Oct - 14:42:43 10° W 14:45:35 17° SW 14:48:25 10° S daylight
29 Oct - 04:47:41 10° S 04:51:27 24° SE 04:55:12 10° ENE visible
29 Oct - 06:28:19 10° WSW 06:32:57 57° NNW 06:37:33 10° NE visible
29 Oct - 08:12:07 10° WNW 08:15:27 19° NNW 08:18:45 10° NNE daylight
29 Oct - 09:55:55 10° NNW 09:58:36 15° N 10:01:16 10° NE daylight
29 Oct - 11:37:26 10° NW 11:41:30 30° NNE 11:45:29 10° E daylight
29 Oct - 13:18:59 10° WNW 13:23:24 53° SW 13:27:44 10° SE daylight
30 Oct - 05:05:49 10° SSW 05:10:23 52° SE 05:14:57 10° ENE visible
30 Oct - 06:48:04 10° W 06:52:18 32° NNW 06:56:30 10° NE daylight
30 Oct - 08:32:23 10° NW 08:35:09 15° N 08:37:55 10° NNE daylight
30 Oct - 10:15:08 10° NNW 10:18:20 18° NNE 10:21:30 10° ENE daylight
30 Oct - 11:56:23 10° NW 12:00:52 54° NNE 12:05:15 10° ESE daylight
30 Oct - 13:38:42 10° WNW 13:42:20 24° SW 13:45:54 10° S daylight
31 Oct - 03:45:06 10° S 03:48:09 17° SE 03:51:12 10° E visible
31 Oct - 05:24:46 10° WSW 05:29:29 76° NW 05:34:11 10° NE visible
31 Oct - 07:08:11 10° WNW 07:11:49 22° NNW 07:15:25 10° NNE daylight
31 Oct - 08:52:18 10° NNW 08:54:55 15° N 08:57:32 10° NE daylight
31 Oct - 10:34:05 10° NW 10:37:56 25° NNE 10:41:43 10° E daylight
31 Oct - 12:15:28 10° NW 12:20:02 75° SW 12:24:30 10° SE daylight
